GW1162 Weather Reports


time (UTC)temp
C
wind
direction
speed
KPH
gust
KPH
rain 1hr
cm
rain 24hr
cm
rain mn
cm
humidity
%
barometer
mb
20260508073706 1 255 0.0 0.0 0.00 0.00 0.00 94 1004.7
20260508073206 1 255 0.0 0.0 0.00 0.00 0.00 94 1004.7
20260508070706 1 255 0.0 0.0 0.00 0.00 0.00 93 1004.7
20260508070206 1 255 0.0 0.0 0.00 0.00 0.00 93 1004.7
20260508060705 1 255 0.0 0.0 0.00 0.00 0.00 93 1004.9
20260508060205 1 255 0.0 0.0 0.00 0.00 0.00 93 1004.8
20260508053705 1 254 0.0 0.0 0.00 0.00 0.00 92 1005.1
20260508050705 1 254 0.0 0.0 0.00 0.00 0.00 91 1005.1
20260508043705 2 254 1.6 1.6 0.00 0.00 0.00 90 1005.0
20260508043205 2 254 0.0 3.2 0.00 0.00 0.00 90 1005.0
20260508040705 2 254 1.6 1.6 0.00 0.00 0.00 88 1005.2
20260508033705 2 255 1.6 3.2 0.00 0.00 0.00 85 1005.2
20260508033205 2 255 1.6 3.2 0.00 0.00 0.00 84 1005.2
20260508030205 3 255 1.6 3.2 0.00 0.00 0.00 82 1005.3
20260508023706 3 277 1.6 3.2 0.00 0.00 0.00 81 1005.3
20260508023206 4 277 1.6 3.2 0.00 0.00 0.00 81 1005.3
20260508020205 5 277 3.2 3.2 0.00 0.00 0.00 79 1005.4
20260508013705 5 315 1.6 1.6 0.00 0.00 0.00 78 1005.2
20260508013205 5 315 0.0 3.2 0.00 0.00 0.00 77 1005.1
20260508010705 6 315 1.6 4.8 0.00 0.00 0.00 77 1005.0
20260508003706 6 312 1.6 1.6 0.00 0.00 0.00 74 1004.6
20260508003205 6 312 1.6 3.2 0.00 0.00 0.00 74 1004.5
20260508000205 7 313 0.0 4.8 0.00 0.00 0.00 71 1004.2
20260507233705 7 317 1.6 4.8 0.00 0.00 0.00 70 1004.1
20260507233205 7 315 3.2 4.8 0.00 0.00 0.00 68 1004.1
20260507230205 7 332 6.4 12.9 0.00 0.00 0.00 70 1004.1
20260507223705 7 0 4.8 12.9 0.00 0.00 0.00 68 1004.1
20260507220205 7 335 8.0 12.9 0.00 0.00 0.00 66 1004.3
20260507213705 7 329 4.8 11.3 0.00 0.00 0.00 68 1004.4
20260507213205 7 0 3.2 20.9 0.00 0.00 0.00 71 1004.4
20260507210205 7 320 8.0 24.1 0.00 0.00 0.00 71 1004.2
20260507203704 6 0 17.7 25.7 0.00 0.00 0.00 74 1004.3
20260507200704 7 0 19.3 25.7 0.00 0.00 0.00 63 1004.2
20260507200205 7 0 22.5 32.2 0.00 0.00 0.00 64 1004.2
20260507193704 7 334 12.9 20.9 0.00 0.00 0.00 65 1003.9
20260507190205 7 315 19.3 29.0 0.00 0.00 0.00 67 1004.2
20260507183704 6 337 11.3 22.5 0.00 0.00 0.00 77 1004.1
20260507183205 5 341 9.7 27.4 0.00 0.00 0.00 79 1004.2
20260507180705 6 0 12.9 24.1 0.00 0.00 0.00 77 1004.2
20260507180205 5 318 11.3 22.5 0.00 0.00 0.00 80 1004.3
20260507173704 4 316 6.4 14.5 0.00 0.00 0.00 82 1004.4
20260507173205 5 0 3.2 22.5 0.00 0.00 0.00 83 1004.4
20260507170206 6 0 11.3 32.2 0.00 0.00 0.00 71 1004.2
20260507163706 6 0 8.0 32.2 0.00 0.00 0.00 71 1004.2
20260507153706 6 0 14.5 27.4 0.00 0.00 0.00 68 1004.2
20260507150706 5 0 12.9 32.2 0.00 0.00 0.00 72 1004.0
20260507150206 6 0 17.7 25.7 0.00 0.00 0.00 72 1003.9
20260507143706 6 0 6.4 16.1 0.00 0.00 0.00 66 1003.6
20260507140205 6 0 12.9 32.2 0.00 0.00 0.00 65 1003.4
20260507133706 6 0 11.3 24.1 0.00 0.00 0.00 66 1003.2
20260507133207 6 0 8.0 22.5 0.00 0.00 0.00 66 1003.2
20260507130705 6 0 11.3 20.9 0.00 0.00 0.00 67 1003.2
20260507130206 6 0 8.0 19.3 0.00 0.00 0.00 65 1003.2
20260507123706 6 0 3.2 9.7 0.00 0.00 0.00 65 1003.0
20260507123206 6 0 4.8 19.3 0.00 0.00 0.00 65 1003.1
20260507120706 5 0 1.6 4.8 0.00 0.00 0.00 65 1003.0
20260507120206 5 0 3.2 9.7 0.00 0.00 0.00 65 1003.0
20260507113706 5 0 3.2 9.7 0.00 0.00 0.00 65 1002.9
20260507113205 5 0 1.6 8.0 0.00 0.00 0.00 65 1002.9
20260507110706 5 0 3.2 9.7 0.00 0.00 0.00 65 1002.8
20260507110207 5 0 3.2 9.7 0.00 0.00 0.00 65 1002.7
20260507103706 5 0 1.6 4.8 0.00 0.00 0.00 67 1002.4
20260507100706 5 0 0.0 3.2 0.00 0.00 0.00 71 1002.3
20260507100206 5 0 0.0 3.2 0.00 0.00 0.00 72 1002.3
20260507093205 5 0 1.6 4.8 0.00 0.00 0.00 77 1002.0
20260507090206 5 0 0.0 0.0 0.00 0.00 0.00 85 1002.3
20260507083706 5 1 0.0 0.0 0.00 0.00 0.00 90 1002.7
20260507083205 5 138 0.0 0.0 0.00 0.00 0.00 90 1002.7
20260507080705 5 139 0.0 0.0 0.00 0.00 0.00 90 1002.4
20260507080206 5 140 0.0 0.0 0.00 0.00 0.00 90 1002.5